Date String (YYYY-MM-DD hh:mm:ss) UTC,Instrument flags,Ambient pressure (hPa),Sample flow (lpm),Bypass flow (lpm),Sample temperature (°C),Ambient temperature (°C),ASC tube jacket temperature (°C),LED temperature (°C),Box temperature (°C),Sample RH (%),Span deviation,Mass concentration (μg/m³),Mass concentration (μg/m³),Mass concentration (μg/m³)
DateTimeUTC,F1_M11,P_M11,Q1_M11,Q2_M11,T1_M11,T2_M11,T3_M11,T4_M11,T5_M11,U1_M11,ZSPAN_M11,X0_M11,X2_M11,X1_M11
2022-05-27 14:00:00,,0825.3,4.99,0.00,30.1,29.0,00.0,39.0,31.9,15.3,0000.0,0006.94,0002.85,0001.98
2022-05-27 14:01:00,,0825.3,5.00,0.00,30.1,29.0,00.0,39.1,32.0,15.3,0000.0,0007.93,0002.96,0002.00
2022-05-27 14:02:00,,0825.3,5.01,0.00,30.1,29.1,00.0,39.1,32.0,15.6,0000.0,0008.19,0003.02,0002.03
2022-05-27 14:03:00,,0825.3,5.00,0.00,30.2,29.1,00.0,39.1,32.0,15.6,0000.0,0008.64,0003.03,0002.04
2022-05-27 14:04:00,,0825.3,4.98,0.00,30.2,29.1,00.0,39.1,32.0,15.0,0000.0,0009.04,0003.06,0002.02
2022-05-27 14:05:00,,0825.3,5.00,0.00,30.2,29.2,00.0,39.1,32.0,14.6,0000.0,0009.06,0003.08,0002.04
2022-05-27 14:06:00,,0825.3,5.01,0.00,30.2,29.2,00.0,39.1,32.0,14.3,0000.0,0008.97,0003.10,0002.04
2022-05-27 14:07:00,,0825.3,4.99,0.00,30.2,29.2,00.0,39.1,32.0,13.1,0000.0,0008.91,0003.07,0002.04
2022-05-27 14:08:00,,0825.3,5.00,0.00,30.2,29.2,00.0,39.1,32.1,13.7,0000.0,0008.99,0003.12,0002.05
2022-05-27 14:09:00,,0825.3,4.99,0.00,30.2,29.3,00.0,39.1,32.1,14.3,0000.0,0009.11,0003.16,0002.07
2022-05-27 14:10:00,,0825.3,5.01,0.00,30.3,29.3,00.0,39.1,32.1,15.1,0000.0,0008.87,0003.14,0002.08
2022-05-27 14:11:00,,0825.3,4.99,0.00,30.3,29.3,00.0,39.1,32.1,13.7,0000.0,0008.66,0003.15,0002.09
2022-05-27 14:12:00,,0825.2,4.99,0.00,30.3,28.9,00.0,39.1,32.0,14.1,0000.0,0007.90,0003.07,0002.08
2022-05-27 14:13:00,,0825.2,5.01,0.00,30.2,28.1,00.0,39.0,31.8,13.4,0000.0,0007.27,0003.03,0002.04
2022-05-27 14:14:00,,0825.2,5.00,0.00,30.1,27.8,00.0,39.0,31.7,13.7,0000.0,0006.60,0003.03,0002.02
2022-05-27 14:15:00,,0825.2,4.99,0.00,30.1,27.8,00.0,39.0,31.7,14.0,0000.0,0006.21,0002.99,0002.02
2022-05-27 14:16:00,,0825.2,5.00,0.00,30.0,27.9,00.0,38.9,31.6,15.1,0000.0,0006.48,0002.95,0002.01
2022-05-27 14:17:00,,0825.2,5.01,0.00,30.0,28.0,00.0,38.9,31.7,19.2,0000.0,0006.60,0002.94,0002.00
2022-05-27 14:18:00,,0825.2,5.00,0.00,30.0,28.1,00.0,38.9,31.7,19.1,0000.0,0007.40,0003.00,0002.00
2022-05-27 14:19:00,,0825.2,5.00,0.00,29.9,28.3,00.0,38.9,31.7,18.7,0000.0,0007.35,0002.99,0002.01
2022-05-27 14:20:00,,0825.2,5.00,0.00,29.9,28.4,00.0,38.9,31.7,18.5,0000.0,0007.24,0002.97,0002.01
2022-05-27 14:21:00,,0825.2,5.01,0.00,29.9,28.5,00.0,38.9,31.7,19.2,0000.0,0007.72,0003.00,0002.01
2022-05-27 14:22:00,,0825.2,5.01,0.00,29.9,28.6,00.0,38.9,31.8,18.7,0000.0,0007.77,0002.96,0001.99
2022-05-27 14:23:00,,0825.3,4.99,0.00,30.0,28.7,00.0,38.9,31.8,18.7,0000.0,0007.74,0002.98,0001.99
2022-05-27 14:24:00,,0825.2,4.99,0.00,30.0,28.7,00.0,38.9,31.8,19.0,0000.0,0007.69,0002.98,0002.00
2022-05-27 14:25:00,,0825.2,5.01,0.00,30.0,28.8,00.0,38.9,31.8,18.3,0000.0,0007.61,0002.97,0002.02
2022-05-27 14:26:00,,0825.2,4.99,0.00,30.0,28.9,00.0,38.9,31.8,17.9,0000.0,0007.88,0002.94,0002.03
2022-05-27 14:27:00,,0825.2,5.00,0.00,30.0,28.9,00.0,38.9,31.9,18.8,0000.0,0007.65,0002.97,0002.03
2022-05-27 14:28:00,,0825.2,4.99,0.00,30.0,29.0,00.0,38.9,31.9,17.2,0000.0,0007.70,0002.97,0002.04
2022-05-27 14:29:00,,0825.1,5.00,0.00,30.0,29.0,00.0,38.9,31.9,19.0,0000.0,0007.00,0002.94,0002.05
2022-05-27 14:30:00,,0825.1,5.00,0.00,30.1,29.1,00.0,38.9,31.9,18.9,0000.0,0007.51,0003.02,0002.05
2022-05-27 14:31:00,,0825.0,5.01,0.00,30.1,29.1,00.0,38.9,32.0,18.5,0000.0,0007.61,0003.06,0002.05
2022-05-27 14:32:00,,0825.1,4.99,0.00,30.1,29.2,00.0,38.9,32.0,18.9,0000.0,0007.33,0003.02,0002.05
2022-05-27 14:33:00,,0825.1,4.99,0.00,30.1,28.9,00.0,38.9,31.9,18.4,0000.0,0007.43,0003.08,0002.07
2022-05-27 14:34:00,,0825.0,5.01,0.00,30.1,28.1,00.0,38.9,31.8,19.6,0000.0,0007.64,0003.10,0002.08
2022-05-27 14:35:00,,0825.1,4.99,0.00,30.0,27.7,00.0,38.8,31.6,19.3,0000.0,0008.31,0003.14,0002.09
2022-05-27 14:36:00,,0825.1,5.00,0.00,29.9,27.7,00.0,38.8,31.6,18.7,0000.0,0008.76,0003.16,0002.11
2022-05-27 14:37:00,,0825.1,5.02,0.00,29.9,27.8,00.0,38.8,31.5,18.4,0000.0,0008.53,0003.17,0002.12
2022-05-27 14:38:00,,0825.1,4.99,0.00,29.8,27.9,00.0,38.8,31.5,18.0,0000.0,0008.48,0003.22,0002.13
2022-05-27 14:39:00,,0825.1,5.01,0.00,29.8,28.0,00.0,38.8,31.6,18.8,0000.0,0008.80,0003.22,0002.14
2022-05-27 14:40:00,,0825.0,5.00,0.00,29.8,28.1,00.0,38.7,31.6,18.5,0000.0,0009.16,0003.25,0002.15
2022-05-27 14:41:00,,0825.0,5.00,0.00,29.8,28.3,00.0,38.7,31.6,19.0,0000.0,0009.14,0003.23,0002.14
2022-05-27 14:42:00,,0824.9,4.99,0.00,29.8,28.4,00.0,38.7,31.6,19.4,0000.0,0009.70,0003.21,0002.13
2022-05-27 14:43:00,,0824.9,5.00,0.00,29.8,28.5,00.0,38.7,31.7,18.7,0000.0,0010.31,0003.23,0002.12
2022-05-27 14:44:00,,0824.9,5.01,0.00,29.8,28.6,00.0,38.7,31.7,18.4,0000.0,0010.79,0003.24,0002.12
2022-05-27 14:45:00,,0824.9,5.02,0.00,29.9,28.7,00.0,38.8,31.7,18.8,0000.0,0010.53,0003.22,0002.11
2022-05-27 14:46:00,,0824.9,5.00,0.00,29.9,28.7,00.0,38.8,31.7,19.3,0000.0,0010.68,0003.21,0002.11
2022-05-27 14:47:00,,0824.9,5.00,0.00,29.9,28.8,00.0,38.8,31.8,16.8,0000.0,0010.31,0003.21,0002.10
2022-05-27 14:48:00,,0824.9,5.00,0.00,29.9,28.9,00.0,38.8,31.8,18.0,0000.0,0010.96,0003.21,0002.10
2022-05-27 14:49:00,,0825.0,4.99,0.00,29.9,28.9,00.0,38.8,31.8,17.5,0000.0,0010.96,0003.16,0002.10
2022-05-27 14:50:00,,0825.0,5.00,0.00,30.0,29.0,00.0,38.8,31.8,17.6,0000.0,0010.72,0003.17,0002.08
2022-05-27 14:51:00,,0825.1,5.01,0.00,30.0,29.0,00.0,38.8,31.9,16.9,0000.0,0010.50,0003.15,0002.07
2022-05-27 14:52:00,,0825.0,5.00,0.00,30.0,28.9,00.0,38.8,31.9,17.7,0000.0,0010.19,0003.12,0002.07
2022-05-27 14:53:00,,0824.9,4.99,0.00,30.0,28.2,00.0,38.7,31.7,15.5,0000.0,0009.43,0003.09,0002.07
2022-05-27 14:54:00,,0824.9,5.01,0.00,29.9,27.7,00.0,38.7,31.5,16.0,0000.0,0008.91,0003.07,0002.05
2022-05-27 14:55:00,,0824.9,5.00,0.00,29.8,27.7,00.0,38.7,31.5,15.3,0000.0,0008.36,0002.99,0002.04
2022-05-27 14:56:00,,0824.9,4.99,0.00,29.8,27.7,00.0,38.7,31.5,14.3,0000.0,0008.34,0002.98,0002.03
2022-05-27 14:57:00,,0824.9,5.00,0.00,29.8,27.9,00.0,38.6,31.5,13.7,0000.0,0007.53,0002.89,0002.01
2022-05-27 14:58:00,,0824.9,5.01,0.00,29.8,28.0,00.0,38.6,31.5,14.1,0000.0,0007.64,0002.85,0002.00
2022-05-27 14:59:00,,0824.9,5.00,0.00,29.8,28.1,00.0,38.6,31.5,15.6,0000.0,0006.67,0002.85,0001.99
